Welcome to the New NWS' Forecast!
Most changes are behind the scenes, but click here for differences you might notice.
Latest weather observations around

Montgomery, Dannelly Field (KMGM)

Using International System of Units (Switch to English Units)
Date/ Time (CDT) Wind (kph) Vis. (km) Weather Sky Cond. Temp (°C) Rel. Humidity Wind Chill (°C) Heat Index (°C) Pressure Precip. (cm)
Air Dwpt 6 hour Altimeter (hPa) Sea level (hPa) 1 hr 3 hr 6 hr
Max Min
Aug 17 19:26 W 13 16.09 Cloudy SCT021 BKN025 OVC032 26 24     88%   28 1019.3        
Aug 17 17:53 S 8 16.09 Clear CLR 26 24     88%   28 1018.6 1018.2 0    
Aug 17 14:53 S 17 16.09 Thunderstorms FEW035 33 23     56%   38 1018.6 1018.2      
Aug 17 14:18 SSE 13 16.09 Mostly Clear FEW033 32 23     59%   37 1019.3        
Aug 17 14:03 S 17 16.09 Thunderstorms FEW033 32 23     59%   37 1019.3        
Aug 17 13:53 S 11 16.09 Mostly Clear FEW034 33 23     57%   38 1019.3 1019      
Aug 17 13:43 S 13 16.09 Mostly Clear FEW034 32 23     59%   36 1019.3        
Aug 17 12:53 SW 13 16.09 Clear CLR 32 22     57%   36 1020 1019.7      
Aug 17 11:53 SW 17 16.09 Clear CLR 31 24     66%   37 1020.7 1020.3      
Aug 17 10:53 SSW 11 16.09 Mostly Cloudy FEW037 BKN055 30 23     67%   34 1021.3 1020.9      
Aug 17 09:58 SSW 13 16.09 Partly Cloudy SCT018 SCT025 29 24     75%   35 1021.7        
Aug 17 09:53 SSE 15 16.09 Mostly Cloudy BKN009 BKN018 BKN050 29 24     75%   35 1021.7 1021.5      
Aug 17 09:33 SSW 11 16.09 Mostly Cloudy BKN009 BKN018 BKN050 28 24     79%   33 1022        
Aug 17 09:21 SSE 11 16.09 Mostly Cloudy SCT010 SCT016 BKN050 28 24     79%   32 1022        
Aug 17 09:12 SSE 11 16.09 Mostly Cloudy BKN010 28 24     79%   32 1021.7        
Aug 17 08:53 SE 11 16.09 Mostly Cloudy BKN009 28 24     82%   32 1021.7 1021.3      
Aug 17 08:48 SSE 9 16.09 Mostly Cloudy BKN009 27 24     84%   30 1021.7        
Aug 17 08:45 SSE 11 16.09 Partly Cloudy SCT007 27 24     82%   30 1021.7        
Aug 17 07:53 S 11 16.09 Cloudy OVC005 25 24     94%   26 1021.7 1021.4      
Aug 17 07:28 SSE 11 16.09 Cloudy OVC003 24 23     94%   25 1021.7        
Aug 17 06:59 S 8 4.83 Fog/Mist OVC002 24 23     96%   25 1021.7        
Aug 17 06:53 SSE 8 2.41 Fog/Mist OVC002 23 23     100%   24 1021.7 1021.5      
Aug 17 06:39 SSE 9 2.01 Fog/Mist OVC002 23 23     100%   24 1021.7        
Aug 17 06:29 S 9 2.82 Fog/Mist OVC002 23 23     97%   24 1021.7        
Aug 17 06:21 S 5 6.44 Fog/Mist OVC002 23 23     100%   24 1021.7        
Aug 17 05:53 SE 8 12.87 Cloudy OVC003 23 23     97%   24 1021.7 1021.3      
Aug 17 04:53 Calm 16.09 Cloudy OVC003 23 23     97%   24 1021.3 1021.1      
Aug 17 03:53 SSE 8 16.09 Cloudy OVC004 23 23     97%   24 1020.7 1020.2      
Aug 17 03:40 SSE 8 16.09 Mostly Cloudy BKN004 23 22     96%   24 1020.7        
Aug 17 03:30 Calm 16.09 Partly Cloudy SCT004 23 22     96%   24 1020.3        
Aug 17 02:53 S 5 16.09 Clear CLR 23 22     94%   24 1020.3 1019.9      
Aug 17 01:53 SSE 8 16.09 Clear CLR 23 23     97%   24 1020.7 1020.3      
Aug 17 00:53 SSE 9 16.09 Clear CLR 24 23     94%   25 1021 1020.6      
Aug 16 23:53 ESE 11 16.09 Clear CLR 23 22     94%   24 1021 1020.5      
Aug 16 22:53 Calm 16.09 Clear CLR 24 23     94%   25 1021.7 1021.3      
Aug 16 21:53 S 5 16.09 Clear CLR 24 23     91%   25 1021 1020.8      
Aug 16 20:53 SSE 9 16.09 Clear CLR 25 23     88%   26 1021 1020.6      
Aug 16 19:53 SSE 5 16.09 Clear CLR 26 23     87%   26 1020.7 1020.2      
Aug 16 18:53 SSW 11 16.09 Clear CLR 27 23     79%   30 1019.7 1019.3      
Aug 16 17:53 S 21 16.09 Clear CLR 29 23     68%   33 1019.7 1019.3      
Aug 16 16:53 SSE 15 16.09 Clear CLR 30 24     70%   35 1019.3 1019.1      
Aug 16 15:53 SSE 22 16.09 Clear CLR 31 24     68%   37 1020 1019.6      
Aug 16 14:53 SSE 21 16.09 Clear CLR 30 23     65%   34 1019.7 1019.4      
Aug 16 14:07 SE 17 16.09 Partly Cloudy SCT039 SCT050 33 23     56%   38 1019.7        
Aug 16 13:53 NNE 8 16.09 Cloudy SCT039 BKN050 OVC090 33 24     60%   39 1019.7 1019.3      
Aug 16 12:53 5 16.09 Mostly Cloudy BKN039 BKN050 32 23     58%   37 1020.3 1019.8      
Aug 16 11:53 Calm 16.09 Clear CLR 32 23     61%   37 1020.7 1020.2      
Aug 16 10:53 9 16.09 Mostly Cloudy SCT025 SCT036 BKN070 31 23     61%   35 1021 1020.7      
Aug 16 09:53 SSW 5 16.09 Mostly Clear FEW016 29 24     77%   34 1021 1020.8      
Aug 16 08:53 Calm 16.09 Clear CLR 28 24     82%   32 1021 1020.7      
Aug 16 07:53 SE 5 14.48 Clear CLR 26 24     90%   27 1021 1020.7      
Aug 16 06:53 E 5 6.44 Fog/Mist CLR 23 23     97%   24 1020.3 1020      
Aug 16 05:53 Calm 9.66 Fog/Mist CLR 23 22     96%   24 1020 1019.5      
Aug 16 04:53 Calm 11.27 Partly Cloudy SCT016 23 22     96%   24 1019.3 1018.8      
Aug 16 03:53 ESE 5 14.48 Clear CLR 23 22     94%   24 1019 1018.6      
Aug 16 02:53 Calm 16.09 Mostly Clear FEW003 23 22     94%   24 1018.6 1018.2      
Aug 16 01:53 Calm 16.09 Clear CLR 24 22     90%   25 1018.6 1018.1      
Aug 16 00:53 Calm 16.09 Clear CLR 23 22     94%   24 1018.3 1018.1      
Aug 15 23:53 Calm 16.09 Clear CLR 24 22     88%   25 1018.6 1018.3      
Aug 15 22:53 Calm 16.09 Clear CLR 24 22     85%   25 1018.6 1018.4      
Aug 15 21:53 SSE 11 16.09 Clear CLR 25 22     82%   26 1018.6 1018.3      
Aug 15 20:53 SSW 5 16.09 Clear CLR 26 22     82%   26 1018 1017.6      
Aug 15 19:53 SSW 13 16.09 Partly Cloudy FEW048 SCT060 28 22     70%   31 1017.6 1017.3      
Aug 15 18:53 ESE 8 16.09 Clear CLR 31 23     63%   36 1016.9 1016.4      
Aug 15 17:53 8 16.09 Clear CLR 33 23     56%   38 1016.6 1016.2      
Aug 15 16:53 Calm 16.09 Clear CLR 34 23     52%   39 1016.9 1016.5      
Aug 15 15:53 SE 5 16.09 Mostly Clear FEW047 33 23     56%   38 1017.3 1016.8      
Aug 15 14:53 SSE 8 16.09 Mostly Clear FEW050 34 23     52%   39 1017.3 1016.9      
Aug 15 13:53 5 16.09 Partly Cloudy FEW037 SCT049 33 23     57%   38 1018 1017.6      
Aug 15 12:53 11 16.09 Clear CLR 33 24     60%   39 1018.6 1018.2      
Aug 15 11:53 NE 5 16.09 Clear CLR 31 23     63%   36 1018.6 1018.4      
Aug 15 10:53 8 16.09 Clear CLR 31 24     68%   36 1019 1018.7      
Aug 15 09:53 Calm 16.09 Clear CLR 28 23     74%   32 1019 1018.6      
Aug 15 09:03 Calm 16.09 Partly Cloudy SCT004 26 24     88%   28 1018.6        
Aug 15 08:53 Calm 16.09 Mostly Cloudy BKN004 25 24     94%   26 1018.6 1018.4      
Aug 15 08:51 Calm 16.09 Mostly Cloudy BKN004 25 24     94%   26 1018.6        
Aug 15 08:29 Calm 16.09 Mostly Clear FEW003 23 23     100%   24 1018.6        
Aug 15 08:18 Calm 4.02 Fog/Mist SCT003 23 23     100%   24 1018.6        
Aug 15 07:53 Calm 4.02 Fog/Mist OVC002 23 23     100%   24 1018.6 1018.2      
Aug 15 07:50 Calm 3.22 Fog/Mist OVC002 23 22     94%   24 1018.6        
Aug 15 07:41 Calm 1.61 Fog/Mist OVC002 22 22     100%   23 1018.6        
Aug 15 07:33 Calm 1.21 Fog/Mist VV002 22 22     100%   23 1018.3        
Aug 15 06:53 Calm 0.4 Fog VV002 22 22     100%   23 1018.3 1017.9      
Aug 15 05:53 Calm 0.4 Fog VV002 21 21     97%     1017.6 1017.3      
Aug 15 05:50 Calm 0.4 Fog VV002 22 21     94%   23 1017.6        
Aug 15 05:23 Calm 0.8 Fog VV002 21 21     100%     1017.6        
Aug 15 05:11 SW 5 0.4 Fog VV002 22 21     96%   22 1017.6        
Aug 15 05:01 Calm 0.8 Fog VV002 22 22     100%   23 1017.6        
Aug 15 04:53 Calm 1.61 Fog/Mist VV002 22 21     96%   22 1017.6 1017.1      
Aug 15 04:45 Calm 2.41 Fog/Mist BKN002 21 21     100%     1017.3        
Aug 15 04:34 Calm 1.21 Fog/Mist VV002 21 21     100%     1017.3        
Aug 15 04:26 Calm 1.61 Fog/Mist VV002 21 21     100%     1017.3        
Aug 15 04:23 Calm 2.41 Fog/Mist FEW002 21 21     97%     1017.3        
Aug 15 04:15 Calm 4.83 Fog/Mist FEW002 21 21     100%     1017.3        
Aug 15 03:53 Calm 12.87 Clear CLR 22 21     96%   22 1016.9 1016.7      
Aug 15 02:53 Calm 16.09 Clear CLR 22 22     97%   23 1016.9 1016.7      
Aug 15 02:26 Calm 4.83 Fog/Mist CLR 22 22     97%   23 1017.3        
Aug 15 02:15 Calm 2.82 Fog/Mist CLR 22 22     97%   23 1017.3        
Aug 15 02:06 Calm 11.27 Clear CLR 22 22     97%   23 1017.3        
Aug 15 01:58 Calm 3.22 Fog/Mist CLR 22 22     97%   23 1017.3        
Aug 15 01:53 Calm 1.61 Fog/Mist CLR 22 22     97%   23 1017.3 1016.9      
Aug 15 01:48 Calm 1.21 Fog/Mist VV002 22 22     100%   23 1017.3        
Aug 15 01:41 Calm 1.21 Fog/Mist CLR 22 22     97%   23 1016.9        
Aug 15 01:36 E 5 2.41 Fog/Mist CLR 22 22     97%   23 1016.9        
Aug 15 00:53 E 5 8.05 Fog/Mist CLR 23 22     96%   24 1017.3 1017      
Aug 15 00:16 Calm 14.48 Mostly Clear FEW002 23 23     97%   24 1017.6        
Aug 15 00:09 Calm 3.22 Fog/Mist SCT002 23 23     100%   24 1017.6        
Aug 15 00:01 Calm 1.61 Fog/Mist VV002 23 22     96%   24 1017.6        
Aug 14 23:53 Calm 1.21 Fog/Mist VV002 23 22     96%   24 1017.6 1017.3      
Aug 14 23:34 Calm 0.8 Fog VV002 23 23     100%   24 1017.6        
Aug 14 23:25 ESE 8 1.61 Fog/Mist VV002 23 22     96%   24 1017.6        
Aug 14 23:23 ESE 9 2.41 Fog/Mist FEW002 23 22     96%   24 1017.6        
Aug 14 22:53 Calm 14.48 Clear CLR 23 23     97%   24 1017.6 1017.3      
Aug 14 22:37 Calm 6.44 Fog/Mist CLR 23 23     97%   24 1017.6        
Aug 14 22:28 Calm 4.02 Fog/Mist CLR 23 23     97%   24 1017.6        
Aug 14 22:18 Calm 4.83 Fog/Mist CLR 23 23     97%   24 1017.6        
Aug 14 22:09 Calm 4.02 Fog/Mist CLR 23 23     97%   24 1017.6        
Aug 14 21:53 Calm 6.44 Fog/Mist CLR 23 23     97%   24 1017.6 1017.3      
Aug 14 20:53 Calm 9.66 Fog/Mist CLR 24 23     96%   25 1016.9 1016.6      
Aug 14 19:53 Calm 12.87 Mostly Clear FEW015 24 23     94%   25 1016.3 1016      
Aug 14 18:53 Calm 14.48 Clear CLR 24 24     97%   25 1016.3 1016     0
Aug 14 17:53 SE 8 16.09 Mostly Cloudy FEW048 SCT075 BKN110 24 24     97%   25 1015.9 1015.7 0    
Aug 14 15:53 ENE 11 6.44 Rain and Fog/Mist FEW095 BKN120 24 23     94%   25 1016.9 1016.6 0 0  
May 15 10:53 E 13 16.09 Cloudy BKN033 OVC041 28 19     59%   30 1015.6 1015.1      
May 14 19:53 SE 11 16.09 Clear CLR 26 20     69%   27 1013.6 1013.3      
May 14 17:53 NE 8 16.09 Clear CLR 32 17     42%   32 1013.2 1012.8      
May 14 12:53 N 11 16.09 Mostly Clear FEW070 34 16     33%   34 1015.9 1015.4      
May 14 11:53 N 8 16.09 Clear CLR 34 18     38%   35 1016.3 1015.9      
May 13 00:53 Calm 16.09 Clear CLR 19 17     87%     1018.3 1018      
May 12 15:53 SW 11 16.09 Clear CLR 33 12     28%   31 1018.6 1018.3      
May 11 16:53 Calm 16.09 Mostly Clear FEW080 32 13     32%   31 1017.6 1017.2      
May 11 11:53 5 16.09 Clear CLR 30 15     40%   30 1020.7 1020.3      
Jun 12 08:37 ESE 13 16.09 Mostly Clear FEW015 27 21     69%   29 1021.3        
Jun 11 20:53 ESE 8 16.09 Clear CLR 26 22     77%   28 1019.3 1019.1      
Jun 11 16:53 SSE 15 16.09 Clear CLR 29 20     59%   31 1018.3 1018      
Jun 11 10:53 SE 11 16.09 Mostly Clear FEW028 30 20     55%   32 1020.7 1020.3      
Jun 11 10:10 ESE 11 16.09 Partly Cloudy SCT023 29 21     61%   32 1021        
Jun 11 09:53 SE 13 16.09 Mostly Cloudy BKN023 29 21     63%   31 1021 1020.6      
Jun 09 16:53 S 8 16.09 Clear CLR 31 13     35%   30 1013.2 1012.7      
Jun 09 15:53 8 16.09 Mostly Clear FEW060 30 13     36%   29 1013.6 1013.1      
Jun 08 06:53 Calm 16.09 Clear CLR 19 14     73%     1012.2 1012      
Jun 07 10:53 NNE 17 16.09 Clear CLR 27 19     62%   28 1008.1 1007.7      
Jun 06 13:58 N 15 3.22 Heavy Rain FEW027 BKN034 OVC060 24 21     84%   25 1006.8   0    
Jun 06 13:43 N 17 2.01 Heavy Rain FEW006 BKN022 OVC040 23 21     85%   24 1007.1   1    
Jun 06 12:53 SE 18 16.09 Mostly Cloudy FEW021 SCT033 BKN042 27 21     71%   28 1007.5 1007      
Jun 06 09:53 NE 15 16.09 Mostly Cloudy BKN007 26 22     77%   28 1007.8 1007.4      
Jun 06 07:53 Calm 16.09 Mostly Clear FEW004 23 21     85%   24 1008.5 1008.2      
Notice The following observation data may not be complete
Jun 05 21:03   9.66 Rain FEW006 BKN023 OVC110          %         0    
Jun 05 19:28 N 5 16.09 Mostly Cloudy SCT027 BKN065 24 20     79%   24 1008.8